Regional Weather Roundup
Issued by NWS Cleveland, OH

Home | Current Version | Previous Version | Graphics & Text | Print | Product List | Glossary On
Versions: 1 2 3 4 5 6 7 8 9 10 11 12 13 14 15 16 17 18 19 20 21 22 23 24 25 26 27 28 29 30 31 32 33 34 35 36 37 38 39 40 41 42 43 44 45 46 47 48 49 50
000
ASUS41 KCLE 251400
RWRCLE
OHIO REGIONAL WEATHER ROUNDUP
NATIONAL WEATHER SERVICE WILMINGTON, OH
1000 AM EDT MON MAY 25 2015

NOTE: "FAIR" INDICATES FEW OR NO CLOUDS BELOW 12,000 FEET WITH NO
SIGNIFICANT WEATHER AND/OR OBSTRUCTIONS TO VISIBILITY.

OHZ001>008-015>018-024>027-034-035-043-044-251500-
   NORTHWEST OHIO

CITY           SKY/WX    TMP DP  RH WIND       PRES   REMARKS
DEFIANCE       CLOUDY    73  63  70 S15G23    30.02S
FINDLAY        CLOUDY    76  58  53 SW22G31   30.05S
TOLEDO EXPRESS LGT RAIN  72  60  66 S13G24    30.02F
TOLEDO EXEC    CLOUDY    75  58  55 SW22G28   30.04S
LIMA           CLOUDY    75  59  57 SW20G29   30.06S
$$

OHZ009>014-019>023-028>033-038-089-251500-
   NORTHEAST OHIO

CITY           SKY/WX    TMP DP  RH WIND       PRES   REMARKS
CLE-HOPKINS    PTSUNNY   76  58  53 S16       30.12S
CLE-LAKEFRONT  PTSUNNY   77  57  50 S20G26    30.09R
CUY CO. ARPT   PTSUNNY   75  59  57 SW12G21   30.12R
LORAIN-ELYRIA  CLOUDY    74  58  57 SW17G25   30.10S
ASHTABULA      PTSUNNY   73  56  54 SW17G24   30.13F
AKRON-CANTON   PTSUNNY   73  55  53 SW17G28   30.17R
WOOSTER        NOT AVBL
MANSFIELD      CLOUDY    71  57  61 S14G23    30.13S
YOUNGSTOWN     PTSUNNY   73  56  54 SW10      30.16S
$$

OHZ042-051>053-060>062-070>072-077>081-251500-
  SOUTHWEST OHIO

CITY           SKY/WX    TMP DP  RH WIND       PRES   REMARKS
CINC-COVINGTON LGT RAIN  65  62  90 S15G23    30.16S FOG
CINC-LUNKEN    RAIN      66  63  90 SW14      30.17R FOG
HAMILTON       HVY RAIN  67  65  93 SW8G18    30.16R FOG
DAYTON         NOT AVBL
WRIGHT-PAT AFB NOT AVBL
DAYTON GENERAL CLOUDY    71  61  70 SW22G32   30.14R
WILMINGTON     CLOUDY    72  56  57 SW22G33   30.14S
$$

OHZ036-037-039>041-045>050-054>059-063>069-073>076-082>088-251500-
  CENTRAL AND SOUTHEAST OHIO

CITY           SKY/WX    TMP DP  RH WIND       PRES   REMARKS
COLUMBUS       CLOUDY    73  56  54 S10       30.15R
OSU AIRPORT    CLOUDY    73  57  57 S15G23    30.13F
BOLTON FIELD   SUNNY     75  59  57 S20G32    30.15S
RICKENBACK AFB NOT AVBL
NEWARK         CLOUDY    71  57  61 S6        30.15F
MARION         CLOUDY    71  56  58 S15       30.11F
LANCASTER      CLOUDY    75  55  49 S10       30.17R
ZANESVILLE     CLOUDY    70  55  59 S9        30.18S
NEW PHILLY     CLOUDY    74  56  53 S7        30.18S
$$


USA.gov is the U.S. government's official web portal to all federal, state and local government web resources and services.